When you browse on this site, cookies collect data to enhance your experience and personalize the content and advertising you see.
Visit our Privacy Policy to learn more. By continuing to use the site, you agree to this use of cookies and data.
  • In Schweiz
  • Länderverzeichnis
  • Für 7 Tage
  • Wassertemperatur
  • Satellitenkarten
  • Wetterkarte
  • Widgets
  • user-avatar
    Anmelden

    Stündliche Wetter Salta

    Heute, 23 März, Samstag

    Zeit Temperatur Niederschläge Wind Luftdruck Luftfeuchtigkeit
    00:00 +13°C° 0 mm 0 m/S 652 mmHg 93%
    01:00 +13°C° 0 mm 0 m/S 652 mmHg 93%
    02:00 +13°C° 0 mm 0 m/S 652 mmHg 93%
    03:00 +13°C° 0 mm 0 m/S 652 mmHg 93%
    04:00 +14°C° 0 mm 0 m/S 651 mmHg 93%
    05:00 +14°C° 0 mm 0 m/S 651 mmHg 92%
    06:00 +15°C° 0 mm 1 m/S 652 mmHg 90%
    07:00 +16°C° 0 mm 1 m/S 652 mmHg 87%
    08:00 +18°C° 0 mm 1 m/S 653 mmHg 85%
    09:00 +19°C° 0 mm 1 m/S 653 mmHg 81%
    10:00 +19°C° 0 mm 2 m/S 653 mmHg 77%
    11:00 +20°C° 0 mm 2 m/S 653 mmHg 73%
    12:00 +23°C° 0 mm 2 m/S 652 mmHg 69%
    13:00 +24°C° 0 mm 2 m/S 652 mmHg 64%
    14:00 +25°C° 0 mm 3 m/S 652 mmHg 60%
    15:00 +25°C° 0 mm 2 m/S 651 mmHg 61%
    16:00 +24°C° 0 mm 2 m/S 651 mmHg 63%
    17:00 +24°C° 0 mm 2 m/S 650 mmHg 65%
    18:00 +22°C° 0 mm 1 m/S 650 mmHg 73%
    19:00 +20°C° 0 mm 1 m/S 650 mmHg 81%
    20:00 +16°C° 0 mm 0 m/S 650 mmHg 90%
    21:00 +16°C° 0 mm 0 m/S 650 mmHg 90%
    22:00 +15°C° 0 mm 0 m/S 651 mmHg 91%
    23:00 +15°C° 0 mm 0 m/S 651 mmHg 92%

    Morgen, 24 März, Sonntag

    Zeit Temperatur Niederschläge Wind Luftdruck Luftfeuchtigkeit
    00:00 +15°C° 0 mm 0 m/S 651 mmHg 92%
    01:00 +15°C° 0 mm 0 m/S 651 mmHg 93%
    02:00 +15°C° 0 mm 0 m/S 651 mmHg 93%
    03:00 +15°C° 0 mm 0 m/S 651 mmHg 93%
    04:00 +15°C° 0 mm 0 m/S 651 mmHg 93%
    05:00 +15°C° 0 mm 0 m/S 651 mmHg 93%
    06:00 +16°C° 0 mm 0 m/S 652 mmHg 88%
    07:00 +19°C° 0 mm 1 m/S 653 mmHg 83%
    08:00 +20°C° 0 mm 1 m/S 654 mmHg 79%
    09:00 +23°C° 0.1 mm 1 m/S 655 mmHg 70%
    10:00 +25°C° 0.1 mm 1 m/S 656 mmHg 62%
    11:00 +27°C° 0.1 mm 2 m/S 656 mmHg 53%
    12:00 +27°C° 0.2 mm 2 m/S 656 mmHg 52%
    13:00 +28°C° 0.2 mm 2 m/S 655 mmHg 50%
    14:00 +28°C° 0.2 mm 2 m/S 655 mmHg 49%
    15:00 +27°C° 0.2 mm 2 m/S 654 mmHg 55%
    16:00 +26°C° 0.2 mm 2 m/S 653 mmHg 60%
    17:00 +24°C° 0.2 mm 2 m/S 652 mmHg 66%
    18:00 +21°C° 1.5 mm 2 m/S 652 mmHg 75%
    19:00 +21°C° 1.5 mm 1 m/S 652 mmHg 84%
    20:00 +19°C° 1.5 mm 1 m/S 652 mmHg 93%
    21:00 +18°C° 0.2 mm 1 m/S 653 mmHg 93%
    22:00 +18°C° 0.2 mm 1 m/S 653 mmHg 92%
    23:00 +18°C° 0.2 mm 1 m/S 653 mmHg 92%

    übermorgen, 25 März, Montag

    Zeit Temperatur Niederschläge Wind Luftdruck Luftfeuchtigkeit
    00:00 +18°C° 0 mm 1 m/S 653 mmHg 92%
    01:00 +18°C° 0 mm 1 m/S 653 mmHg 92%
    02:00 +16°C° 0 mm 0 m/S 653 mmHg 92%
    03:00 +15°C° 0 mm 0 m/S 652 mmHg 91%
    04:00 +15°C° 0 mm 0 m/S 652 mmHg 91%
    05:00 +15°C° 0 mm 0 m/S 651 mmHg 91%
    06:00 +16°C° 0 mm 0 m/S 652 mmHg 89%
    07:00 +17°C° 0 mm 0 m/S 653 mmHg 86%
    08:00 +20°C° 0 mm 1 m/S 653 mmHg 84%
    09:00 +21°C° 0.1 mm 1 m/S 654 mmHg 78%
    10:00 +23°C° 0.1 mm 1 m/S 654 mmHg 72%
    11:00 +25°C° 0.1 mm 2 m/S 654 mmHg 67%
    12:00 +25°C° 0.6 mm 2 m/S 654 mmHg 67%
    13:00 +25°C° 0.6 mm 2 m/S 653 mmHg 67%
    14:00 +25°C° 0.6 mm 3 m/S 652 mmHg 68%
    15:00 +24°C° 0.9 mm 2 m/S 651 mmHg 73%
    16:00 +23°C° 0.9 mm 2 m/S 651 mmHg 78%
    17:00 +21°C° 0.9 mm 2 m/S 650 mmHg 84%
    18:00 +21°C° 1.8 mm 1 m/S 651 mmHg 87%
    19:00 +20°C° 1.8 mm 1 m/S 651 mmHg 90%
    20:00 +19°C° 1.8 mm 1 m/S 652 mmHg 93%
    21:00 +19°C° 1.3 mm 1 m/S 652 mmHg 93%
    22:00 +19°C° 1.3 mm 1 m/S 652 mmHg 94%
    23:00 +19°C° 1.3 mm 1 m/S 653 mmHg 94%

    26 März, Dienstag

    Zeit Temperatur Niederschläge Wind Luftdruck Luftfeuchtigkeit
    00:00 +18°C° 0.6 mm 1 m/S 653 mmHg 94%
    01:00 +18°C° 0.6 mm 1 m/S 653 mmHg 94%
    02:00 +16°C° 0.6 mm 1 m/S 652 mmHg 94%
    03:00 +16°C° 0.5 mm 1 m/S 652 mmHg 94%
    04:00 +16°C° 0.5 mm 1 m/S 653 mmHg 95%
    05:00 +16°C° 0.5 mm 1 m/S 653 mmHg 95%
    06:00 +18°C° 0.6 mm 1 m/S 653 mmHg 95%
    07:00 +18°C° 0.6 mm 1 m/S 654 mmHg 95%
    08:00 +17°C° 0.6 mm 2 m/S 655 mmHg 94%
    09:00 +18°C° 1 mm 1 m/S 655 mmHg 94%
    10:00 +18°C° 1 mm 1 m/S 655 mmHg 93%
    11:00 +18°C° 1 mm 1 m/S 655 mmHg 92%
    12:00 +17°C° 0.5 mm 2 m/S 654 mmHg 92%
    13:00 +17°C° 0.5 mm 2 m/S 654 mmHg 91%
    14:00 +17°C° 0.5 mm 2 m/S 653 mmHg 91%
    15:00 +18°C° 0.1 mm 1 m/S 653 mmHg 91%
    16:00 +18°C° 0.1 mm 1 m/S 653 mmHg 90%
    17:00 +18°C° 0.1 mm 1 m/S 653 mmHg 90%
    18:00 +16°C° 0.2 mm 1 m/S 653 mmHg 92%
    19:00 +16°C° 0.2 mm 1 m/S 654 mmHg 94%
    20:00 +15°C° 0.2 mm 1 m/S 654 mmHg 96%
    21:00 +15°C° 1 mm 1 m/S 655 mmHg 96%
    22:00 +14°C° 1 mm 0 m/S 655 mmHg 96%
    23:00 +14°C° 1 mm 0 m/S 656 mmHg 96%

    27 März, Mittwoch

    Zeit Temperatur Niederschläge Wind Luftdruck Luftfeuchtigkeit
    00:00 +15°C° 0.6 mm 1 m/S 656 mmHg 96%
    01:00 +15°C° 0.6 mm 1 m/S 655 mmHg 97%
    02:00 +15°C° 0.6 mm 1 m/S 655 mmHg 97%
    03:00 +14°C° 0.3 mm 1 m/S 655 mmHg 97%
    04:00 +14°C° 0.3 mm 1 m/S 655 mmHg 97%
    05:00 +14°C° 0.3 mm 1 m/S 655 mmHg 97%
    06:00 +14°C° 0.2 mm 1 m/S 655 mmHg 96%
    07:00 +14°C° 0.2 mm 1 m/S 655 mmHg 95%
    08:00 +14°C° 0.2 mm 1 m/S 656 mmHg 93%
    09:00 +15°C° 0.1 mm 1 m/S 656 mmHg 88%
    10:00 +16°C° 0.1 mm 1 m/S 656 mmHg 84%
    11:00 +17°C° 0.1 mm 2 m/S 656 mmHg 79%
    12:00 +18°C° 0.1 mm 2 m/S 656 mmHg 78%
    13:00 +18°C° 0.1 mm 2 m/S 655 mmHg 78%
    14:00 +18°C° 0.1 mm 2 m/S 655 mmHg 77%
    15:00 +18°C° 0 mm 2 m/S 654 mmHg 78%
    16:00 +19°C° 0 mm 1 m/S 654 mmHg 80%
    17:00 +18°C° 0 mm 1 m/S 654 mmHg 81%
    18:00 +18°C° 0 mm 1 m/S 654 mmHg 84%
    19:00 +16°C° 0 mm 1 m/S 654 mmHg 88%
    20:00 +14°C° 0 mm 0 m/S 654 mmHg 91%
    21:00 +14°C° 0 mm 0 m/S 655 mmHg 92%
    22:00 +13°C° 0 mm 0 m/S 655 mmHg 93%
    23:00 +13°C° 0 mm 0 m/S 655 mmHg 95%

    28 März, Donnerstag

    Zeit Temperatur Niederschläge Wind Luftdruck Luftfeuchtigkeit
    00:00 +13°C° 0 mm 0 m/S 654 mmHg 95%
    01:00 +12°C° 0 mm 0 m/S 654 mmHg 95%
    02:00 +12°C° 0 mm 0 m/S 654 mmHg 95%
    03:00 +12°C° 0 mm 0 m/S 654 mmHg 95%
    04:00 +12°C° 0 mm 0 m/S 653 mmHg 95%
    05:00 +12°C° 0 mm 0 m/S 653 mmHg 95%
    06:00 +13°C° 0 mm 0 m/S 654 mmHg 91%
    07:00 +15°C° 0 mm 1 m/S 654 mmHg 88%
    08:00 +16°C° 0 mm 1 m/S 655 mmHg 84%
    09:00 +19°C° 0 mm 1 m/S 655 mmHg 76%
    10:00 +19°C° 0 mm 2 m/S 655 mmHg 68%
    11:00 +21°C° 0 mm 3 m/S 656 mmHg 60%
    12:00 +22°C° 0 mm 3 m/S 655 mmHg 60%
    13:00 +24°C° 0 mm 3 m/S 654 mmHg 59%
    14:00 +24°C° 0 mm 3 m/S 654 mmHg 58%
    15:00 +24°C° 0 mm 2 m/S 653 mmHg 61%
    16:00 +23°C° 0 mm 2 m/S 653 mmHg 64%
    17:00 +21°C° 0 mm 2 m/S 652 mmHg 67%
    18:00 +21°C° 0 mm 1 m/S 652 mmHg 73%
    19:00 +19°C° 0 mm 1 m/S 652 mmHg 80%
    20:00 +16°C° 0 mm 0 m/S 652 mmHg 86%
    21:00 +15°C° 0 mm 0 m/S 653 mmHg 88%
    22:00 +15°C° 0 mm 0 m/S 653 mmHg 89%
    23:00 +14°C° 0 mm 0 m/S 653 mmHg 91%
    Mehr zeigen